DLH7AT LIPZ-EDDS

Flight info

Callsign DLH7AT
Flight time 0h 55m
Altitude 34000
Route ROKIB DCT DIKEM DCT UNTAD DCT RESIA DCT ARGAX Y170 ROMIR T125 REUTL REUTL5A
Aircraft A319/M-SDE3FGHIRWY/LB1

Departure

Time 2026-04-30 19:41
Airport Venice Marco Polo Airport (LIPZ)

Arrival

Time 2026-04-30 20:37
Airport Stuttgart Airport (EDDS)
Time Latitude Longitude Altitude Speed Heading
2026-04-30 19:21 45.49918 12.33755 15 ft 0 kts 311°
2026-04-30 19:24 45.49918 12.33756 15 ft 0 kts 311°
2026-04-30 19:36 45.49908 12.33772 20 ft 4 kts 311°
2026-04-30 19:36 45.49872 12.33809 16 ft 3 kts 40°
2026-04-30 19:37 45.49866 12.33802 14 ft 0 kts 43°
2026-04-30 19:39 45.49878 12.33818 15 ft 7 kts 43°
2026-04-30 19:39 45.49923 12.33877 14 ft 10 kts 43°
2026-04-30 19:39 45.49977 12.33948 15 ft 11 kts 42°
2026-04-30 19:40 45.50038 12.34026 14 ft 12 kts 52°
2026-04-30 19:40 45.50044 12.34102 13 ft 1 kts 92°
2026-04-30 19:40 45.50043 12.34164 13 ft 12 kts 91°
2026-04-30 19:40 45.50047 12.34293 14 ft 14 kts 86°
2026-04-30 19:41 45.50051 12.34458 14 ft 23 kts 88°
2026-04-30 19:41 45.50143 12.34711 15 ft 56 kts 42°
2026-04-30 19:41 45.50687 12.35410 32 ft 147 kts 41°
2026-04-30 19:41 45.51481 12.36437 799 ft 156 kts 44°
2026-04-30 19:42 45.52285 12.37457 1855 ft 149 kts 47°
2026-04-30 19:42 45.53053 12.38384 2762 ft 146 kts 52°
2026-04-30 19:42 45.53499 12.39683 3347 ft 152 kts 84°
2026-04-30 19:42 45.53399 12.41254 3852 ft 171 kts 96°
2026-04-30 19:43 45.53241 12.43025 4388 ft 187 kts 94°
2026-04-30 19:43 45.53091 12.44930 4866 ft 197 kts 94°
2026-04-30 19:43 45.52930 12.46871 4948 ft 198 kts 95°
2026-04-30 19:44 45.52413 12.50793 6407 ft 210 kts 115°
2026-04-30 19:44 45.51409 12.52360 7196 ft 221 kts 147°
2026-04-30 19:44 45.49914 12.52975 7994 ft 230 kts 180°
2026-04-30 19:44 45.48350 12.52422 8820 ft 235 kts 208°
2026-04-30 19:45 45.47085 12.50987 9617 ft 239 kts 236°
2026-04-30 19:45 45.46425 12.48824 10299 ft 246 kts 265°
2026-04-30 19:45 45.46627 12.46332 10725 ft 264 kts 291°
2026-04-30 19:45 45.47215 12.43725 11144 ft 288 kts 291°
2026-04-30 19:46 45.47860 12.40888 11522 ft 313 kts 290°
2026-04-30 19:46 45.48534 12.37889 12061 ft 328 kts 290°
2026-04-30 19:46 45.49227 12.34743 12929 ft 333 kts 290°
2026-04-30 19:46 45.49917 12.31575 13860 ft 335 kts 290°
2026-04-30 19:47 45.50602 12.28403 14672 ft 338 kts 289°
2026-04-30 19:47 45.51059 12.26275 15217 ft 339 kts 289°
2026-04-30 19:47 45.51989 12.21936 16298 ft 342 kts 289°
2026-04-30 19:47 45.52683 12.18702 17092 ft 345 kts 289°
2026-04-30 19:48 45.53395 12.15420 17862 ft 347 kts 289°
2026-04-30 19:48 45.54120 12.12103 18589 ft 352 kts 289°
2026-04-30 19:48 45.54854 12.08749 19252 ft 354 kts 289°
2026-04-30 19:48 45.55591 12.05384 19949 ft 356 kts 289°
2026-04-30 19:49 45.56324 12.02034 20648 ft 358 kts 289°
2026-04-30 19:49 45.58404 11.95564 22045 ft 361 kts 307°
2026-04-30 19:49 45.60114 11.92918 22726 ft 364 kts 318°
2026-04-30 19:50 45.62185 11.90867 23380 ft 368 kts 329°
2026-04-30 19:50 45.64510 11.89256 23986 ft 372 kts 332°
2026-04-30 19:50 45.66858 11.87655 24518 ft 374 kts 331°
2026-04-30 19:50 45.69193 11.86059 25038 ft 376 kts 331°
2026-04-30 19:51 45.71558 11.84440 25582 ft 377 kts 331°
2026-04-30 19:51 45.73932 11.82808 26038 ft 379 kts 331°
2026-04-30 19:51 45.76325 11.81155 26547 ft 382 kts 332°
2026-04-30 19:51 45.78710 11.79502 26983 ft 386 kts 331°
2026-04-30 19:52 45.81134 11.77817 27445 ft 388 kts 331°
2026-04-30 19:52 45.83573 11.76122 27867 ft 391 kts 331°
2026-04-30 19:52 45.86044 11.74408 28368 ft 393 kts 331°
2026-04-30 19:52 45.88492 11.72712 28839 ft 395 kts 331°
2026-04-30 19:53 45.90913 11.70800 29301 ft 395 kts 323°
2026-04-30 19:53 45.93046 11.68303 29739 ft 394 kts 313°
2026-04-30 19:53 45.94814 11.65294 30182 ft 395 kts 304°
2026-04-30 19:53 45.96192 11.61863 30577 ft 397 kts 297°
2026-04-30 19:54 45.97452 11.58326 30919 ft 399 kts 297°
2026-04-30 19:54 45.98708 11.54798 31247 ft 402 kts 298°
2026-04-30 19:54 46.00004 11.51164 31390 ft 410 kts 298°
2026-04-30 19:54 46.01311 11.47489 31641 ft 414 kts 298°
2026-04-30 19:55 46.02624 11.43782 31962 ft 415 kts 298°
2026-04-30 19:55 46.03921 11.40119 32421 ft 415 kts 298°
2026-04-30 19:55 46.05202 11.36397 32890 ft 413 kts 297°
2026-04-30 19:55 46.06437 11.32656 33315 ft 413 kts 296°
2026-04-30 19:56 46.07645 11.28904 33773 ft 412 kts 296°
2026-04-30 19:56 46.08842 11.25153 34162 ft 412 kts 296°
2026-04-30 19:56 46.11214 11.17730 34225 ft 401 kts 296°
2026-04-30 19:57 46.13547 11.10493 34244 ft 400 kts 296°
2026-04-30 19:57 46.15915 11.03204 34245 ft 400 kts 297°
2026-04-30 19:58 46.18270 10.95917 34247 ft 400 kts 296°
2026-04-30 19:58 46.20598 10.88659 34243 ft 401 kts 296°
2026-04-30 19:59 46.22956 10.81329 34212 ft 400 kts 296°
2026-04-30 20:00 46.26511 10.70470 34220 ft 398 kts 297°
2026-04-30 20:00 46.28883 10.63230 34215 ft 397 kts 297°
2026-04-30 20:01 46.32408 10.52384 34204 ft 397 kts 296°
2026-04-30 20:01 46.34756 10.45126 34171 ft 396 kts 297°
2026-04-30 20:02 46.38252 10.34311 34184 ft 396 kts 296°
2026-04-30 20:03 46.41737 10.23479 34181 ft 396 kts 296°
2026-04-30 20:03 46.44053 10.16227 34179 ft 395 kts 296°
2026-04-30 20:04 46.46354 10.08971 34156 ft 396 kts 296°
2026-04-30 20:05 46.51418 9.99729 34167 ft 394 kts 318°
2026-04-30 20:05 46.57574 9.91821 34171 ft 397 kts 319°
2026-04-30 20:06 46.61712 9.86464 34160 ft 398 kts 319°
2026-04-30 20:06 46.65848 9.81101 34162 ft 399 kts 318°
2026-04-30 20:07 46.70010 9.75699 34156 ft 400 kts 318°
2026-04-30 20:08 46.76213 9.67623 34192 ft 401 kts 318°
2026-04-30 20:08 46.80370 9.62197 34188 ft 402 kts 319°
2026-04-30 20:09 46.84548 9.56729 34156 ft 403 kts 319°
2026-04-30 20:09 46.90839 9.48477 34152 ft 404 kts 319°
2026-04-30 20:10 46.97116 9.40221 34136 ft 405 kts 319°
2026-04-30 20:11 47.03511 9.32136 34157 ft 406 kts 328°
2026-04-30 20:11 47.08603 9.28820 34158 ft 405 kts 346°
2026-04-30 20:12 47.16003 9.26700 34163 ft 406 kts 348°
2026-04-30 20:13 47.22476 9.24847 34166 ft 407 kts 349°
2026-04-30 20:13 47.27122 9.23516 34175 ft 408 kts 349°
2026-04-30 20:14 47.32713 9.21917 34176 ft 409 kts 349°
2026-04-30 20:14 47.38302 9.20306 34186 ft 409 kts 349°
2026-04-30 20:15 47.43902 9.18690 34167 ft 410 kts 350°
2026-04-30 20:15 47.46672 9.17897 33785 ft 410 kts 350°
2026-04-30 20:15 47.49465 9.17097 33172 ft 406 kts 350°
2026-04-30 20:15 47.52242 9.16299 32608 ft 403 kts 350°
2026-04-30 20:16 47.54994 9.15504 32007 ft 400 kts 351°
2026-04-30 20:16 47.57723 9.14712 31409 ft 398 kts 351°
2026-04-30 20:16 47.60401 9.13932 30829 ft 396 kts 351°
2026-04-30 20:16 47.63104 9.13146 30261 ft 394 kts 351°
2026-04-30 20:17 47.65817 9.12755 29618 ft 388 kts
2026-04-30 20:17 47.68465 9.13293 29079 ft 380 kts 17°
2026-04-30 20:17 47.70916 9.14660 28535 ft 374 kts 28°
2026-04-30 20:17 47.73058 9.16732 27905 ft 372 kts 40°
2026-04-30 20:18 47.74860 9.19473 27296 ft 371 kts 52°
2026-04-30 20:18 47.76279 9.22671 26690 ft 370 kts 55°
2026-04-30 20:18 47.77915 9.25601 26107 ft 367 kts 43°
2026-04-30 20:18 47.79942 9.27917 25518 ft 367 kts 31°
2026-04-30 20:19 47.82255 9.29524 24992 ft 366 kts 20°
2026-04-30 20:19 47.84735 9.30381 24487 ft 367 kts
2026-04-30 20:19 47.87251 9.30618 23992 ft 366 kts
2026-04-30 20:19 47.89797 9.30808 23442 ft 364 kts
2026-04-30 20:20 47.92320 9.30995 22960 ft 360 kts
2026-04-30 20:20 47.94816 9.31182 22495 ft 356 kts
2026-04-30 20:20 47.97282 9.31369 22025 ft 352 kts
2026-04-30 20:20 47.99694 9.31551 21565 ft 349 kts
2026-04-30 20:21 48.02108 9.31731 21092 ft 346 kts
2026-04-30 20:21 48.04509 9.31913 20616 ft 342 kts
2026-04-30 20:21 48.06883 9.32094 20126 ft 340 kts
2026-04-30 20:21 48.09242 9.32272 19648 ft 337 kts
2026-04-30 20:22 48.11587 9.32450 19161 ft 336 kts
2026-04-30 20:22 48.13893 9.32629 18677 ft 335 kts
2026-04-30 20:22 48.16221 9.32809 18148 ft 333 kts
2026-04-30 20:22 48.18519 9.33050 17672 ft 329 kts
2026-04-30 20:23 48.20794 9.33391 17215 ft 326 kts
2026-04-30 20:23 48.23036 9.33775 16759 ft 323 kts
2026-04-30 20:23 48.25271 9.34172 16311 ft 321 kts
2026-04-30 20:23 48.27465 9.34556 15866 ft 319 kts
2026-04-30 20:24 48.29672 9.34932 15421 ft 318 kts
2026-04-30 20:24 48.31867 9.35299 14979 ft 316 kts
2026-04-30 20:24 48.34054 9.35661 14534 ft 315 kts
2026-04-30 20:24 48.36240 9.35943 14077 ft 316 kts
2026-04-30 20:25 48.40583 9.34953 13106 ft 318 kts 352°
2026-04-30 20:25 48.42746 9.34258 12624 ft 316 kts 352°
2026-04-30 20:26 48.47054 9.32878 11651 ft 315 kts 352°
2026-04-30 20:26 48.51321 9.31518 10703 ft 313 kts 352°
2026-04-30 20:26 48.53413 9.30850 10570 ft 300 kts 352°
2026-04-30 20:27 48.57405 9.29576 10154 ft 289 kts 352°
2026-04-30 20:27 48.61365 9.28313 9491 ft 292 kts 352°
2026-04-30 20:28 48.65259 9.27043 8709 ft 287 kts 349°
2026-04-30 20:28 48.68237 9.23192 7896 ft 297 kts 294°
2026-04-30 20:29 48.68039 9.17057 7049 ft 298 kts 254°
2026-04-30 20:30 48.66316 9.08120 6224 ft 273 kts 252°
2026-04-30 20:30 48.64410 9.01047 6191 ft 224 kts 219°
2026-04-30 20:31 48.59971 9.00322 4306 ft 233 kts 144°
2026-04-30 20:32 48.58240 9.05910 4004 ft 179 kts 84°
2026-04-30 20:32 48.59282 9.09090 4041 ft 164 kts 52°
2026-04-30 20:33 48.60162 9.10068 4011 ft 155 kts 36°
2026-04-30 20:33 48.62165 9.10773 4005 ft 148 kts 15°
2026-04-30 20:33 48.63194 9.10821 3715 ft 149 kts
2026-04-30 20:34 48.65238 9.10642 3259 ft 145 kts
2026-04-30 20:34 48.66994 9.11603 2674 ft 130 kts 51°
2026-04-30 20:35 48.67271 9.12882 2431 ft 130 kts 81°
2026-04-30 20:35 48.67480 9.14218 2209 ft 132 kts 73°
2026-04-30 20:35 48.67983 9.16888 1803 ft 130 kts 75°
2026-04-30 20:36 48.68229 9.18198 1636 ft 129 kts 75°
2026-04-30 20:36 48.68472 9.19486 1450 ft 129 kts 73°
2026-04-30 20:36 48.68934 9.21892 1252 ft 89 kts 74°
2026-04-30 20:37 48.69059 9.22580 1227 ft 45 kts 75°
2026-04-30 20:37 48.69182 9.22956 1219 ft 24 kts 53°
2026-04-30 20:37 48.69242 9.23063 1218 ft 0 kts 47°
2026-04-30 20:38 48.69248 9.23072 1218 ft 5 kts 47°
2026-04-30 20:38 48.69284 9.23128 1217 ft 9 kts 44°
2026-04-30 20:38 48.69335 9.23165 1219 ft 7 kts 359°
2026-04-30 20:39 48.69402 9.23114 1223 ft 8 kts 297°
2026-04-30 20:39 48.69403 9.23009 1226 ft 10 kts 252°
2026-04-30 20:39 48.69362 9.22800 1230 ft 30 kts 253°
2026-04-30 20:40 48.69260 9.22262 1254 ft 24 kts 254°
2026-04-30 20:40 48.69214 9.22024 1252 ft 23 kts 252°
2026-04-30 20:40 48.69175 9.21803 1255 ft 21 kts 255°
2026-04-30 20:41 48.69097 9.21399 1263 ft 23 kts 254°
2026-04-30 20:41 48.69053 9.21179 1267 ft 21 kts 253°
2026-04-30 20:41 48.69017 9.20976 1273 ft 19 kts 253°
2026-04-30 20:41 48.68980 9.20791 1276 ft 18 kts 252°
2026-04-30 20:42 48.68968 9.20624 1282 ft 15 kts 300°
2026-04-30 20:42 48.69030 9.20520 1285 ft 12 kts 313°
2026-04-30 20:42 48.69050 9.20376 1291 ft 6 kts 254°